Home > Weather > Sion > Past weeks

Flag for Switzerland Weather for the Past 2 Weeks in Sion, Valais, Switzerland

Now
43 °F

Broken clouds.


Feels Like: 41 °F
Forecast: 41 / 61 °F
Wind: 3 mph from North

Location: Sion Airport

Current Time: May 1, 2016 at 10:44:42 AM

Latest Report: May 1, 2016 at 9:50 AM


Visibility: N/A

Pressure: 29.98 "Hg (28.15 "Hg at 514m altitude)

Humidity: 81%

Dew Point: 37 °F

Location of SionLocation

Historic Weather in Sion — Graph

°F

Sion Temperature Yesterday

Maximum temperature yesterday: 66 °F (at 12:20 PM)
Minimum temperature yesterday: 41 °F (at 6:50 AM)
Average temperature yesterday: 55 °F

High & Low Weather Summary for the Past Weeks

 TemperatureHumidityPressure
High72 °F (Apr 21, 1:50 PM)94% (Apr 17, 6:50 AM)30.30 "Hg (Apr 17, 6:50 AM)
Low34 °F (Apr 28, 6:50 AM)22% (Apr 30, 1:50 PM)29.65 "Hg (Apr 26, 1:50 PM)
Average54 °F54%29.93 "Hg
* Reported Apr 16 8:20 AM — May 1 8:50 AM, Sion, Weather by CustomWeather, © 2016

Note: Actual official high and low records may vary slightly from our data, if they occured in-between our weather recording intervals... More about our weather records

Advertising

Sion Weather History for the Previous 24 Hours

Scroll right to see more
 ConditionsComfort  
Time TempWeatherWind HumidityBarometerVisibility
8:50 AM
Sun, May 1
41 °FBroken clouds.3 mph87%29.98 "HgN/A
8:20 AM41 °FBroken clouds.8 mph87%29.98 "HgN/A
7:50 AM41 °FMore clouds than sun.6 mph81%29.98 "HgN/A
7:20 AM39 °FMore clouds than sun.7 mph87%29.95 "HgN/A
7:50 PM
Sat, Apr 30
45 °FRain. More clouds than sun.15 mph93%29.92 "HgN/A
7:20 PM46 °FRain. More clouds than sun.15 mph82%29.92 "Hg5 mi
6:50 PM48 °FLight rain. More clouds than sun.12 mph76%29.92 "HgN/A
6:20 PM50 °FLight rain. More clouds than sun.17 mph71%29.89 "HgN/A
5:50 PM50 °FLight rain. More clouds than sun.21 mph76%29.89 "HgN/A
5:20 PM52 °FLight rain. More clouds than sun.22 mph72%29.89 "HgN/A
4:50 PM55 °FLight rain. More clouds than sun.22 mph55%29.89 "HgN/A
4:20 PM57 °FLight rain. More clouds than sun.22 mph48%29.86 "HgN/A
3:50 PM61 °FMore clouds than sun.20 mph39%29.86 "HgN/A
3:20 PM61 °FMore clouds than sun.17 mph39%29.83 "HgN/A
2:50 PM61 °FMore clouds than sun.17 mph42%29.83 "HgN/A
2:20 PM63 °FBroken clouds.15 mph39%29.83 "HgN/A
1:50 PM66 °FBroken clouds.3 mph22%29.86 "HgN/A
1:20 PM66 °FBroken clouds.3 mph26%29.86 "HgN/A
12:50 PM66 °FScattered clouds.2 mph24%29.89 "HgN/A
12:20 PM66 °FScattered clouds.2 mph26%29.89 "HgN/A
11:50 AM64 °FScattered clouds.2 mph28%29.92 "HgN/A
11:20 AM61 °FScattered clouds.2 mph31%29.95 "HgN/A
10:20 AM55 °FScattered clouds.2 mph41%29.98 "HgN/A
Weather by CustomWeather, © 2016

See weather overviewHow to use our weather pages